Regional Weather Roundup
Issued by NWS

Home | Current Version | Previous Version | Graphics & Text | Print | Product List | Glossary On
Versions: 1 2 3 4 5 6 7 8 9 10 11 12 13 14 15 16 17 18 19 20 21 22 23 24 25 26 27 28 29 30 31 32 33 34 35 36 37 38 39 40 41 42 43 44 45 46 47 48 49 50
013
ASUS43 KLOT 280003
RWRIL

ILLINOIS REGIONAL WEATHER ROUNDUP
NATIONAL WEATHER SERVICE CHICAGO/ROMEOVILLE IL
700 PM CDT THU APR 27 2017

NOTE: "FAIR" INDICATES FEW OR NO CLOUDS BELOW 12,000 FEET WITH NO
SIGNIFICANT WEATHER AND/OR OBSTRUCTIONS TO VISIBILITY.

* THESE STATIONS ARE NOT UNDER NWS QUALITY CONTROL. THEY ALSO MAY NOT
  REPORT WEATHER SUCH AS PRECIPITATION OR FOG.

ILZ001-002-007-009-015-016-024-280100-
NORTHWEST ILLINOIS

CITY           SKY/WX    TMP DP  RH WIND       PRES   REMARKS
MOLINE         MOCLDY    48  36  63 W7        29.76R
6HR MIN TEMP:  43; 6HR MAX TEMP:  48;

STERLING*      CLOUDY    44  37  76 W12       29.76R
$$

ILZ003-004-008-010-011-017-018-280100-
NORTH CENTRAL ILLINOIS

CITY           SKY/WX    TMP DP  RH WIND       PRES   REMARKS
ROCKFORD       CLOUDY    43  34  70 W16G22    29.75R
6HR MIN TEMP:  42; 6HR MAX TEMP:  44; 6HR PCP: TRACE;

FREEPORT*      CLOUDY    41  34  75 W9        29.75R
ROCHELLE*      CLOUDY    42  36  78 W17       29.76R
DE KALB*       CLOUDY    42  36  78 W15       29.76R
$$

ILZ005-006-012>014-019>023-280100-
NORTHEAST ILLINOIS

CITY           SKY/WX    TMP DP  RH WIND       PRES   REMARKS
CHICAGO-OHARE  CLOUDY    46  36  68 SW16G25   29.74R
6HR MIN TEMP:  45; 6HR MAX TEMP:  46;

CHICAGO-MIDWAY CLOUDY    47  38  71 W16G23    29.75R
6HR MIN TEMP:  46; 6HR MAX TEMP:  48;

AURORA         CLOUDY    45  37  73 W18       29.76R
6HR MIN TEMP:  45; 6HR MAX TEMP:  46;

LANSING*       CLOUDY    47  42  81 W14       29.76R
WAUKEGAN       CLOUDY    44  36  73 SW12G20   29.71R
6HR MIN TEMP:  43; 6HR MAX TEMP:  46;

DUPAGE AIRPORT CLOUDY    44  37  76 W14G24    29.75R
6HR MIN TEMP:  44; 6HR MAX TEMP:  45;

WHEELING       CLOUDY    45  37  73 SW13      29.74R
6HR MIN TEMP:  44; 6HR MAX TEMP:  46;

MORRIS*        CLOUDY    46  39  76 W12G18    29.76R
NORTHERLY ISL    N/A     47  36  65 SW13        N/A
$$

LMZ740>746-280100-
SOUTHERN LAKE MICHIGAN

STATION/POSITION SKY/WX   TEMP    WIND        PRES    VSBY  WAVE
                          AIR SEA DIR/SP/G                  HT/PER
                          (F)     (DEG/KT/KT) (MB)    (MI)  (FT/S)
SOUTHERN BUOY              43 41  250/ 12/ 16 1006.0          3/ 5
HARRISON CRIB              47     240/ 17/ 23   N/A
BURNHAM HARBOR             47     230/ 11/ 15   N/A
CALUMET HARBOR             47     250/  9/ 16 1006.6R
BURNS HARBOR               49     230/  9/ 22 1007.8R
MICHIGAN CITY              48     210/ 17/ 19   N/A
MICHIGAN CITY 6N           47 47                N/A           3/ 4
ST. JOSEPH                 47 48  250/ 12/ 16 1007.8R         3/ 5
$$

ILZ025>027-034>036-040-047-049-050-058-095>099-280100-
WEST-CENTRAL ILLINOIS

CITY           SKY/WX    TMP DP  RH WIND       PRES   REMARKS
QUINCY         CLEAR     53  42  66 SW8       29.77R
GALESBURG*     CLOUDY    49  40  70 SW3       29.75R
MACOMB*        PTCLDY    54  43  66 SW7       29.77S
JACKSONVILLE*  MOCLDY    55  43  66 SW7       29.77R
PITTSFIELD*    PTCLDY    56  44  65 SW7       29.80R
$$

ILZ028>032-037-038-041>044-048-051>054-059>061-280100-
CENTRAL ILLINOIS

CITY           SKY/WX    TMP DP  RH WIND       PRES   REMARKS
PONTIAC        CLOUDY    49  43  80 W8        29.79R
BLOOMINGTON    CLOUDY    50  41  71 SW10      29.80R
DECATUR        CLOUDY    52  44  74 SW8       29.80R
PEORIA         CLOUDY    52  41  66 W7        29.78R
6HR MIN TEMP:  46; 6HR MAX TEMP:  52;

SPRINGFIELD    CLOUDY    55  43  63 CALM      29.78R
6HR MIN TEMP:  47; 6HR MAX TEMP:  57;

TAYLORVILLE    NOT AVBL
$$

ILZ033-039-045-046-055>057-062-063-280100-
EAST-CENTRAL ILLINOIS

CITY           SKY/WX    TMP DP  RH WIND       PRES   REMARKS
CHAMPAIGN      CLOUDY    50  41  71 SW10      29.80S
MATTOON        CLOUDY    53  44  71 S5        29.79S
PARIS*         MOCLDY    53  46  77 SW8       29.82S
$$

ILZ079-100>102-280100-
SOUTHWEST ILLINOIS

CITY           SKY/WX    TMP DP  RH WIND       PRES   REMARKS
ALTON          MOCLDY    57  43  58 VRB6      29.79R
BELLEVILLE     CLEAR     59  47  64 CALM      29.79R
CAHOKIA*       CLEAR     61  44  53 S3        29.79R
$$

ILZ064>066-069>071-074>076-080>082-084>086-088>090-092>094-280100-
SOUTH-CENTRAL ILLINOIS

CITY           SKY/WX    TMP DP  RH WIND       PRES   REMARKS
CARBONDALE     CLEAR     57  48  72 S9        29.82R
6HR MIN TEMP:  52; 6HR MAX TEMP:  60;

CAIRO*         CLEAR     59  50  72 S3        29.82S
EFFINGHAM*     PTCLDY    54  45  71 SW3       29.81S
MT. VERNON     CLEAR     57  47  69 S6        29.82R
CENTRALIA*     CLEAR     57  47  69 S8        29.81R
SALEM*         PTCLDY    58  46  63 S7        29.81R
$$

ILZ067-068-072-073-078-083-087-091-280100-
SOUTHEAST ILLINOIS

CITY           SKY/WX    TMP DP  RH WIND       PRES   REMARKS
LAWRENCEVILLE  MOCLDY    54  46  74 SW8       29.83S
FLORA*         PTCLDY    57  47  69 S7        29.82R
FAIRFIELD*     CLEAR     56  45  66 S5        29.81R
HARRISBURG*    CLEAR     59  47  64 S7        29.84R
ROBINSON*      PTCLDY    54  45  73 SW5       29.82F
CARMI*         PTCLDY    56  47  71 S5        29.83R
$$

ABBREVIATIONS USED IN REMARKS
   TC - TEMPERATURE IN CELSIUS
  WCI - WIND CHILL INDEX
   HX - HEAT INDEX
  VSB - VISIBILITY
$$





USA.gov is the U.S. government's official web portal to all federal, state and local government web resources and services.